Terminal Aerodrome Forecast
Issued by NWS Newport/Morehead City, NC

Home | Current Version | Previous Version | Text Only | Print | Product List | Glossary Off
Versions: 1 2 3 4 5 6 7 8 9 10 11 12 13 14 15 16

000
FTUS42 KMHX 191100
TAFEWN
TAF
KEWN 191123Z 1912/2012 33008KT P6SM SKC
     FM191500 34010G15KT P6SM SKC
     FM192200 VRB03KT P6SM SKC=

USA.gov is the U.S. government's official web portal to all federal, state and local government web resources and services.